Regional Weather Roundup
Issued by NWS

Home | Current Version | Previous Version | Graphics & Text | Print | Product List | Glossary On
Versions: 1 2 3 4 5 6 7 8 9 10 11 12 13 14 15 16 17 18 19 20 21 22 23 24 25 26 27 28 29 30 31 32 33 34 35 36 37 38 39 40 41 42 43 44 45 46 47 48 49 50
000
ASUS43 KLMK 011710
RWRKY
KENTUCKY REGIONAL WEATHER ROUNDUP
NATIONAL WEATHER SERVICE LOUISVILLE KY
1200 PM EST SUN FEB 01 2015

NOTE "FAIR" INDICATES FEW OR NO CLOUDS BELOW 12,000 FEET
WITH NO SIGNIFICANT WEATHER AND/OR OBSTRUCTIONS TO VISIBILITY.

KYZ001>023-026-027-061>063-070>075-011800-
WESTERN AND SOUTH CENTRAL KENTUCKY

CITY           SKY/WX    TMP DP  RH WIND       PRES   REMARKS
PADUCAH        LGT RAIN  47  45  93 S7        29.75F FOG
HENDERSON      CLOUDY    43  39  87 S7        29.78F
OWENSBORO      LGT RAIN  43  43 100 S13G21    29.81R FOG
HOPKINSVILLE   LGT RAIN  45  43  93 S12       29.81F FOG
BOWLING GREEN  RAIN      46  39  76 S15G31    29.84F
GLASGOW        RAIN      44  37  74 S12G17    29.86F
$$

KYZ024-025-028>034-038-045-046-053-011800-
NORTH CENTRAL KENTUCKY

CITY           SKY/WX    TMP DP  RH WIND       PRES   REMARKS
LOUISVILLE/SDF LGT RAIN  45  38  76 S16G23    29.83F
LOUISVILLE/LOU LGT RAIN  45  37  73 S13G18    29.84F
FORT KNOX      MIX PCPN  43  38  85 S21G30    29.80F
$$

KYZ035>037-039>044-047>052-055>060-089>105-011800-
NORTHEAST KENTUCKY

CITY           SKY/WX    TMP DP  RH WIND       PRES   REMARKS
LEXINGTON      LGT RAIN  44  36  73 S12G22    29.91F
COVINGTON      LGT RAIN  43  26  51 S15       29.87F
FRANKFORT      LGT RAIN  43  37  79 S14G23    29.87F
$$

KYZ054-064>069-076>088-106>120-011800-
SOUTHEAST KENTUCKY

CITY           SKY/WX    TMP DP  RH WIND       PRES   REMARKS
JACKSON        CLOUDY    46  18  32 CALM      29.99F
LONDON         CLOUDY    49  17  28 S13       29.99F
SOMERSET       DRIZZLE   46  28  49 S14G23    29.98F
MIDDLESBORO    CLOUDY    44  18  34 S10       30.06F
MONTICELLO     CLOUDY    49  34  56 S18G26    29.98F HAZE
$$




USA.gov is the U.S. government's official web portal to all federal, state and local government web resources and services.